RH
85 84 83 83 83 83 83 84 85 86 86 84 80 74 68 63 59 55 54 53 52 52 54 56 57 57 57 56 55 54 53 51 50 50 50 49 50 50 50 51 51 51 50 50 50 49 49 49 48 48 47 47 47 46 45 43 42 42 42 42 42 41 40 38 36 34 32 33 34 36 36 33 29 25 22 20 19 20 22 23 25 26 27 27 27 26 25 24
80 79 78 77 77 78 79 79 79 79 79 79 77 73 68 65 61 57 54 53 52 50 50 51 53 54 54 53 52 52 51 50 49 49 49 49 49 49 49 50 51 50 51 51 51 51 51 50 50 49 49 49 48 47 46 45 46 45 45 44 43 41 39 36 34 33 35 39 40 37 33 29 25 21 20 20 21 23 25 26 27 28 28 27 26 25 24 23
78 76 74 72 71 71 72 72 73 73 73 72 71 69 66 63 59 57 54 53 52 51 50 49 50 51 51 51 51 51 51 52 51 51 51 52 52 52 52 52 52 52 52 52 52 53 53 53 53 53 53 52 51 49 48 49 48 47 45 44 43 41 39 37 37 40 43 43 39 33 28 24 22 21 21 22 24 25 27 28 29 29 28 27 26 25 24 24
84 80 78 76 75 72 69 67 66 66 66 66 66 64 62 60 56 54 52 52 51 50 49 49 48 49 51 51 51 50 51 53 54 54 54 55 56 57 58 57 56 55 55 56 57 58 58 58 58 58 56 54 53 53 51 50 49 46 45 45 44 42 41 43 46 48 46 40 33 27 24 22 21 21 23 24 26 27 29 30 30 29 27 26 26 26 26 26
83 82 82 83 82 79 75 70 64 60 59 59 59 58 57 55 53 51 50 50 50 50 48 47 47 47 48 48 49 50 51 53 54 54 55 57 58 60 60 60 61 61 61 62 63 64 64 64 63 62 59 57 56 55 53 51 50 48 47 46 45 46 49 52 53 48 40 33 27 23 22 22 22 23 25 27 28 30 30 30 29 28 27 27 27 27 26 26
74 75 76 78 79 77 74 70 65 60 56 55 53 52 50 48 46 45 45 45 45 46 45 44 44 44 45 45 47 48 49 50 51 53 55 57 58 60 61 62 63 64 66 68 70 70 69 68 67 65 63 60 58 57 56 55 53 51 51 50 53 58 61 58 50 41 32 27 24 23 23 23 25 27 28 30 31 31 30 30 29 29 29 29 28 27 26 26
73 73 73 74 74 73 71 68 66 63 59 55 51 47 45 42 41 41 41 41 40 40 40 40 39 39 40 42 43 44 46 47 49 51 53 55 58 60 62 64 67 70 73 75 75 74 74 74 73 71 68 64 62 60 57 54 53 54 60 66 70 70 64 52 40 32 27 25 24 24 25 27 29 30 31 32 32 31 30 30 30 30 30 29 28 27 27 26
75 76 76 76 75 74 72 70 67 63 58 53 49 45 41 39 39 41 41 39 39 38 36 36 35 36 37 39 41 42 44 45 48 52 55 59 62 66 70 75 77 78 78 77 78 80 82 82 80 76 71 66 62 59 55 54 60 68 78 84 79 66 52 40 31 27 26 25 25 26 27 29 31 31 32 32 31 30 31 31 31 32 30 29 29 28 27 27
75 76 76 76 75 73 70 68 66 61 55 50 46 43 40 40 40 42 41 39 38 38 37 37 36 37 37 38 40 43 45 48 53 58 64 69 75 81 84 84 83 82 81 83 85 87 87 85 80 73 68 65 60 57 59 67 79 89 92 85 67 49 37 31 28 27 26 27 28 29 29 30 31 31 31 31 31 31 32 33 33 32 31 30 29 28 27 26
73 75 74 73 72 70 68 66 64 60 55 49 44 41 40 41 40 39 37 35 34 35 35 36 36 38 39 40 42 45 49 55 63 71 79 85 88 88 85 84 84 87 91 92 91 91 90 84 76 69 66 64 60 63 75 87 95 97 86 66 47 35 31 29 29 29 29 30 30 31 30 30 31 30 31 32 33 34 34 34 33 32 31 30 29 28 27 26
76 76 74 73 71 68 66 63 61 58 54 49 44 40 39 39 36 34 32 30 28 28 29 30 32 33 35 38 40 46 56 67 77 84 88 88 87 87 87 89 92 95 97 95 95 96 91 81 74 70 68 66 70 82 93 99 97 85 65 46 35 31 31 30 31 32 32 33 33 33 32 30 31 32 33 35 36 36 35 34 33 32 31 30 30 29 28 27
77 75 72 69 66 62 59 57 55 54 52 48 43 38 36 35 33 30 28 25 24 23 23 24 27 32 40 46 49 57 67 76 82 85 88 89 91 94 97 98 99 99 98 99 100 97 88 81 77 74 73 77 89 100 102 97 84 65 46 36 33 32 32 33 33 34 34 36 36 35 35 33 33 36 36 37 37 35 34 33 32 32 32 32 31 30 29 28
75 73 69 65 62 58 55 52 51 50 50 45 40 36 34 33 30 27 24 23 21 19 20 27 37 46 57 64 66 69 75 82 86 91 96 98 99 100 100 100 100 100 101 101 97 90 86 82 77 77 84 94 102 105 99 86 66 48 37 34 34 33 34 35 34 35 36 37 36 36 40 40 38 40 39 38 36 35 33 33 33 33 33 34 33 32 31 30
74 71 67 64 60 57 54 51 48 47 45 41 37 34 32 31 28 25 22 20 21 24 31 45 59 64 67 73 78 83 91 96 98 99 100 100 100 100 100 101 100 101 99 94 88 86 82 77 79 88 97 101 103 100 89 69 49 39 35 34 36 35 36 36 35 36 36 36 36 38 45 46 42 41 40 38 36 34 34 34 35 36 36 36 35 34 33 32
74 70 65 61 56 54 50 47 44 41 40 37 34 32 29 27 25 25 24 25 31 41 51 64 77 83 87 91 95 99 100 100 100 100 100 100 100 101 101 101 99 96 90 86 85 83 78 80 91 100 101 101 101 92 72 52 40 37 37 36 37 36 36 37 37 37 36 37 38 40 46 46 42 41 40 37 36 36 36 38 39 39 39 38 37 36 36 36
73 68 63 58 52 50 46 42 39 36 35 32 29 27 24 24 25 27 29 34 47 63 75 85 93 98 101 101 101 101 100 100 100 100 100 100 101 101 99 98 94 89 85 85 83 79 83 94 102 101 100 101 95 77 56 44 39 38 38 37 37 37 37 38 38 38 38 39 40 41 44 44 41 40 39 38 39 39 39 41 42 42 41 41 40 39 38 38
67 62 58 52 48 46 41 37 33 29 27 25 23 22 22 26 31 36 43 53 70 87 96 99 101 101 100 100 99 100 100 100 100 100 101 101 100 98 96 93 89 86 84 82 80 85 96 103 103 101 100 96 81 60 46 41 39 38 38 38 39 38 38 40 40 41 40 41 40 40 42 42 40 41 42 41 41 42 44 45 45 44 44 43 42 40 38 36
60 55 51 47 44 39 34 29 24 22 21 20 22 23 27 34 44 59 74 83 92 99 102 100 100 100 100 100 100 100 101 100 101 101 100 99 99 97 94 91 87 85 82 83 90 98 103 103 103 102 96 84 64 48 41 39 38 38 39 39 41 41 40 41 41 41 40 40 39 39 41 42 41 42 43 44 44 46 47 48 47 46 45 42 40 38 36 34
53 50 46 41 36 30 25 22 19 19 19 22 26 31 42 53 65 84 97 100 100 100 101 100 100 100 100 100 100 100 100 100 100 98 97 98 98 95 93 90 87 85 86 93 101 103 102 102 102 96 83 65 49 42 40 40 39 39 40 41 42 42 41 40 39 39 39 41 41 40 42 44 43 44 45 46 48 49 50 50 49 46 43 40 38 36 35 33
49 45 40 33 27 23 21 19 19 20 22 28 36 45 66 83 87 95 100 101 101 100 100 100 99 100 100 101 102 102 99 99 98 98 99 98 97 96 94 90 89 91 96 102 104 103 102 101 96 83 65 50 43 42 42 41 42 42 43 43 42 42 42 40 38 39 40 42 43 42 44 46 46 47 48 50 51 52 53 51 47 44 42 40 38 36 35 35
46 40 33 27 24 21 20 20 21 25 29 38 51 66 85 100 102 101 100 99 100 101 101 101 100 100 101 102 104 102 99 99 100 101 100 98 98 96 92 90 93 99 101 103 102 102 102 98 86 66 50 44 44 44 44 44 44 44 43 43 41 41 41 40 40 41 41 43 45 44 47 51 50 51 53 53 54 54 53 49 46 44 42 40 38 36 36 36
42 34 28 26 24 21 21 23 27 36 43 50 65 79 87 97 105 104 100 100 101 101 100 98 99 100 100 100 101 100 100 101 101 101 99 100 98 92 89 94 100 102 100 101 102 102 102 93 72 52 44 44 45 45 45 45 44 43 42 41 41 40 41 43 43 43 43 44 48 49 52 57 56 55 55 55 54 53 51 48 46 43 40 38 37 37 37 37
39 30 25 25 25 22 23 30 40 50 55 57 66 78 88 95 100 98 96 98 99 99 97 96 98 100 99 100 100 99 101 101 101 101 101 99 93 87 92 100 101 101 100 101 101 100 97 81 58 45 44 45 46 46 45 44 44 43 42 42 42 42 42 44 44 46 47 48 52 52 54 59 59 56 54 53 53 52 50 47 42 40 38 37 37 38 39 40
35 27 25 24 25 25 26 37 54 61 59 61 71 82 94 100 99 98 98 98 99 99 98 97 99 100 100 99 99 100 100 100 101 102 99 94 91 92 98 101 100 101 101 100 100 98 88 67 48 43 45 46 46 46 45 45 44 43 43 43 44 44 43 44 46 50 53 54 54 54 54 57 58 54 52 52 53 51 47 43 39 38 38 39 40 42 43 45
33 27 25 24 25 27 26 40 62 66 61 72 88 95 98 100 100 100 100 100 100 100 99 100 100 100 100 99 99 100 100 100 102 100 96 96 97 99 101 100 100 102 101 101 102 96 77 55 45 44 46 47 46 46 46 46 45 45 45 44 45 45 46 47 49 51 54 57 58 56 53 54 57 55 51 51 51 46 43 40 38 39 41 43 45 46 47 46
32 29 27 24 25 27 27 39 58 64 65 76 91 99 100 101 100 99 101 102 101 100 100 100 100 99 100 100 100 100 101 103 101 96 96 101 101 100 100 101 103 103 101 102 103 94 68 48 44 46 47 47 47 47 47 46 47 47 47 45 45 46 48 50 51 52 54 58 59 56 54 53 56 56 50 47 46 43 40 40 40 42 43 46 48 48 47 45
33 31 28 24 24 25 27 35 49 59 68 81 91 96 100 100 99 99 101 103 102 102 101 100 101 100 99 100 102 103 105 106 101 96 99 104 102 101 102 105 105 103 101 102 100 87 62 46 45 46 47 48 48 48 48 48 47 47 46 45 45 47 50 53 55 56 57 59 58 56 55 52 52 53 47 44 43 41 41 41 43 44 46 49 50 48 45 43
35 33 29 24 23 25 26 30 42 56 68 86 99 100 99 101 100 99 100 101 100 99 98 98 98 98 100 103 105 106 105 100 98 97 100 104 103 101 103 105 104 101 100 101 94 75 55 46 46 48 49 49 49 50 49 48 46 45 44 45 47 50 54 56 58 60 59 58 56 55 54 51 50 50 45 42 42 42 42 43 45 47 50 51 49 46 45 47
37 33 30 26 22 24 26 25 35 51 62 84 105 105 101 102 101 100 99 96 91 90 91 92 95 98 101 105 106 104 99 96 98 99 100 104 103 101 102 102 101 99 100 101 90 66 49 47 48 50 51 50 51 50 48 47 46 45 46 48 51 54 56 58 60 59 56 55 54 53 54 51 50 50 43 40 42 42 43 44 48 52 54 53 51 52 56 62
38 33 31 29 25 24 26 23 27 40 51 73 98 106 103 101 101 103 101 92 86 86 88 91 97 100 102 106 106 102 99 101 102 100 100 103 102 101 101 101 100 99 100 100 86 60 47 48 50 51 52 51 52 50 47 47 46 46 49 51 53 55 56 57 57 55 53 52 52 52 54 52 51 49 42 39 40 41 43 47 52 58 59 58 59 64 71 78
37 32 30 30 29 24 23 24 24 30 43 60 81 97 103 102 101 103 102 97 94 93 94 97 101 102 103 105 104 101 103 104 101 99 103 105 103 101 100 101 101 99 100 97 79 57 48 48 50 51 52 51 50 49 47 47 47 50 51 51 52 53 54 54 54 53 52 52 50 51 53 52 50 48 42 39 41 44 48 53 60 65 66 68 70 75 80 84
37 31 28 27 28 25 22 22 20 23 34 50 67 83 94 100 103 103 102 102 101 101 101 102 103 102 102 102 101 101 103 103 100 101 105 105 102 100 100 100 98 98 102 93 70 53 49 49 50 51 51 51 49 48 49 49 50 51 52 51 50 50 50 50 50 50 50 49 48 48 48 47 48 46 42 42 46 50 54 61 67 71 74 77 79 82 85 86
36 29 27 25 23 23 20 16 15 18 23 37 57 72 78 87 97 103 105 105 102 101 102 102 101 101 101 101 102 102 102 102 101 103 104 102 100 101 101 99 95 98 102 87 62 50 50 51 51 50 50 50 49 49 50 51 51 52 52 51 49 49 47 46 46 46 45 46 45 44 43 44 47 47 46 49 52 54 59 66 71 76 80 82 84 87 89 87
33 27 26 24 20 18 15 11 10 13 16 25 42 59 70 79 88 97 104 104 102 102 102 103 104 103 103 103 103 103 102 100 101 102 101 100 101 101 99 97 96 100 100 81 55 45 49 52 51 50 50 50 50 51 52 52 52 52 52 50 50 50 46 44 45 43 41 42 42 43 43 47 52 52 51 54 56 58 64 70 72 75 78 80 82 86 85 79
28 24 23 20 17 13 10 9 7 8 13 19 31 46 62 75 87 99 103 101 102 104 104 103 104 105 104 103 102 102 101 100 101 101 100 101 101 100 98 98 99 101 93 70 47 42 46 49 51 51 51 51 52 53 53 53 52 50 50 50 51 50 48 46 44 41 40 39 40 44 46 51 59 59 56 58 58 59 66 69 68 68 68 70 74 77 71 59
24 22 20 16 14 10 8 8 7 7 9 14 25 41 57 72 87 100 104 104 107 109 106 103 103 103 103 102 102 103 102 101 101 101 100 101 100 99 99 99 102 100 82 55 42 42 44 46 51 52 53 54 53 52 53 53 52 49 48 49 50 48 47 44 41 40 40 38 42 46 49 54 63 65 62 56 52 57 65 64 61 60 61 63 64 59 48 39
22 21 17 14 12 10 9 8 7 8 8 10 20 35 55 78 93 100 103 104 108 108 107 105 102 102 104 104 103 102 101 100 100 101 100 100 100 100 99 101 104 92 65 44 41 42 42 45 51 53 54 54 52 52 54 54 52 49 47 48 48 46 44 42 41 41 41 42 44 47 51 56 64 74 70 53 48 58 63 60 58 60 59 54 48 40 36 38
21 18 14 13 11 9 9 8 7 8 8 12 20 28 45 68 88 101 107 108 108 108 108 106 103 102 104 104 103 101 101 101 100 100 99 101 102 100 100 104 97 73 49 41 43 42 42 45 52 58 58 55 53 52 54 54 51 48 47 47 45 44 42 42 42 43 44 44 43 48 56 63 78 90 76 54 54 62 61 60 60 56 50 43 39 38 42 46
18 15 12 12 11 10 10 8 8 9 9 14 23 28 36 49 63 79 90 97 100 101 101 103 103 103 102 102 102 101 101 101 100 101 102 104 105 103 102 96 74 51 42 43 43 43 44 44 50 60 61 55 52 51 52 52 48 46 46 45 44 44 43 44 45 46 46 43 45 55 61 76 102 102 74 58 63 61 55 53 50 44 45 45 44 44 45 47
15 12 12 12 12 11 10 10 10 11 11 14 22 28 32 38 46 55 65 75 82 85 90 95 101 104 103 103 102 101 102 104 104 105 105 104 102 97 88 69 50 42 43 43 43 44 44 43 47 56 58 53 50 49 48 47 45 45 44 44 45 45 46 48 47 47 47 48 59 65 59 78 105 93 69 63 59 48 43 43 43 49 55 54 49 45 45 49
13 12 12 12 13 12 12 13 13 13 13 14 19 25 29 35 44 52 59 67 74 81 89 96 101 105 105 105 105 106 106 107 105 101 99 93 80 68 56 45 41 41 41 41 43 42 41 42 46 51 53 50 48 46 44 42 42 43 44 46 48 49 50 49 44 48 53 60 73 71 60 75 89 75 63 57 44 41 45 46 51 59 61 57 51 48 48 52
12 12 13 13 15 15 15 16 17 19 21 21 23 26 30 36 43 51 57 63 70 78 85 92 98 102 105 106 106 104 101 103 101 91 80 67 52 43 40 39 39 39 38 40 41 40 39 39 42 45 46 46 45 43 41 42 44 45 48 51 52 52 52 49 49 56 63 70 76 70 60 65 68 60 54 46 42 50 54 52 57 62 62 59 52 48 50 52
13 13 15 16 17 18 18 20 24 26 30 34 37 40 43 48 54 59 64 68 73 79 85 91 94 97 98 98 97 92 86 88 85 69 53 44 39 39 38 37 37 36 37 38 38 37 37 37 38 39 40 42 44 44 44 46 48 50 53 54 54 55 54 56 61 68 73 76 72 60 47 47 53 56 52 47 51 57 55 55 59 60 61 57 49 49 53 53
15 16 19 20 21 22 24 27 31 35 37 41 46 51 56 61 65 68 72 76 79 81 84 86 85 85 82 79 77 72 64 60 56 47 41 39 38 37 35 35 36 35 35 36 36 36 36 37 38 37 39 42 45 48 50 52 54 55 56 57 58 61 62 67 74 76 74 66 55 46 39 44 59 62 52 49 53 54 54 57 59 60 60 55 50 54 57 57
20 22 22 23 25 28 30 34 36 38 41 42 46 51 54 58 60 62 64 67 68 68 68 67 65 63 59 55 53 51 45 41 41 40 39 38 36 35 35 35 35 35 35 35 36 37 37 39 41 41 42 44 46 50 50 51 53 56 62 67 69 70 72 76 75 69 57 45 44 49 45 49 64 62 49 49 54 53 55 59 63 67 64 57 55 60 63 65
23 23 23 24 27 28 30 33 34 36 39 41 45 48 49 51 51 51 51 51 52 52 50 48 47 46 43 40 39 39 37 37 38 38 37 36 36 35 35 35 36 36 37 37 38 38 39 42 44 45 47 49 50 50 49 51 59 69 79 79 70 66 67 66 59 52 46 41 49 56 48 45 56 54 47 50 53 53 54 55 60 64 62 58 61 65 69 73
22 22 22 24 27 29 30 32 34 35 38 39 41 43 43 44 42 41 41 40 40 39 38 36 36 35 34 34 35 36 37 37 37 36 36 35 35 36 36 37 38 38 38 39 39 40 41 44 46 47 49 52 56 59 65 71 78 82 80 65 51 50 53 53 50 50 48 44 46 52 48 46 49 47 46 49 50 51 52 54 58 61 61 63 66 69 73 74
21 22 23 26 28 30 32 33 33 34 36 36 38 38 37 37 35 34 32 31 30 30 30 29 29 30 32 33 35 36 36 37 36 35 36 36 36 36 37 38 39 40 41 41 41 41 41 42 46 49 56 66 76 82 83 80 74 67 55 42 40 47 51 51 52 50 47 43 44 48 50 49 47 45 48 51 51 52 55 59 64 66 66 67 67 69 71 71
21 22 24 27 29 30 31 31 31 32 31 31 32 32 30 29 28 27 25 25 24 24 25 27 28 30 32 32 33 34 35 37 37 36 37 37 38 38 39 41 41 40 40 40 40 42 44 51 61 68 78 91 91 79 67 59 52 47 42 41 48 53 52 49 49 49 47 46 47 49 50 51 50 49 52 56 57 59 63 67 70 71 70 67 66 67 69 70
23 24 26 28 29 29 29 28 28 27 27 26 26 25 24 23 23 22 22 22 22 23 24 26 27 29 30 31 33 33 34 35 35 37 38 39 39 39 39 40 41 41 44 47 52 58 62 66 68 64 68 76 68 51 47 48 46 44 45 48 51 52 50 50 52 54 54 51 52 53 53 55 56 56 60 64 65 67 68 70 72 72 70 68 67 69 70 73
25 26 27 28 27 26 25 24 23 23 23 22 21 21 20 21 21 21 21 21 23 24 25 26 27 29 30 30 31 32 33 35 36 37 38 39 40 42 44 47 48 50 53 54 55 57 53 49 45 40 43 51 49 45 50 52 47 44 45 48 52 53 55 57 59 62 60 56 57 59 58 59 63 66 68 69 70 69 69 71 75 75 73 71 71 71 73 74
26 26 25 25 24 22 21 21 20 20 20 20 20 20 20 20 21 21 22 23 23 25 26 28 29 29 29 31 33 35 36 37 38 40 42 44 45 46 45 42 40 37 36 35 36 37 36 35 37 38 43 49 50 49 52 51 47 46 47 52 58 60 59 60 64 66 64 59 60 62 64 67 70 70 67 67 69 69 70 74 78 77 73 71 71 73 76 78
Wind_Speed
39 41 42 43 45 45 46 46 47 48 48 49 50 51 52 53 53 54 54 55 56 56 55 55 55 55 55 55 55 55 55 55 55 55 56 56 56 57 57 57 58 58 58 59 59 59 60 60 61 61 61 61 62 62 63 64 65 64 64 63 63 63 63 62 61 60 59 57 56 54 52 50 49 47 46 44 43 42 42 42 43 44 46 47 49 51 52 53
37 39 40 42 43 45 46 47 48 49 50 51 52 53 53 54 55 55 56 56 57 57 57 57 56 56 56 56 56 55 55 55 55 55 55 56 56 56 57 57 58 58 58 58 58 59 59 59 60 60 60 61 61 62 62 62 62 61 61 61 61 61 60 59 58 57 55 53 52 51 49 48 46 45 44 42 41 41 41 43 45 46 48 49 51 52 53 54
36 37 38 38 40 42 44 46 48 50 51 52 53 54 55 55 56 56 56 57 58 58 59 59 59 57 57 57 56 56 56 55 55 55 55 55 55 55 56 57 57 57 57 57 57 58 58 58 59 59 59 60 60 60 60 60 60 60 60 59 59 58 58 57 55 53 51 50 49 48 47 46 44 43 42 41 41 41 43 45 47 48 50 51 52 53 54 55
36 37 37 37 38 39 41 43 45 47 49 51 53 54 55 56 56 56 57 57 58 59 60 60 60 59 58 58 57 57 56 56 56 55 55 55 55 55 55 56 56 56 56 56 56 57 57 57 57 57 57 57 58 58 58 58 59 58 58 57 57 56 55 54 52 50 48 47 46 46 45 44 42 41 41 41 41 43 45 47 48 50 51 52 53 54 55 56
36 36 37 38 39 40 40 41 43 45 47 48 50 52 53 55 55 56 56 57 58 59 59 59 60 60 59 59 58 58 58 57 57 56 56 55 55 55 56 56 56 56 56 55 55 55 55 55 55 55 56 56 56 56 56 57 57 57 57 56 56 55 53 50 49 47 46 45 44 43 43 42 41 41 41 42 44 45 47 48 50 51 51 52 54 55 56 58
33 34 35 36 37 39 39 40 40 41 42 44 46 48 49 51 52 53 54 55 56 57 58 58 59 59 58 58 58 58 58 58 57 57 56 56 55 55 55 55 55 54 54 53 53 53 53 53 53 54 54 54 55 55 55 55 56 56 56 55 53 51 49 47 46 45 44 44 42 41 41 41 41 42 43 45 46 47 48 49 50 51 52 54 55 56 58 59
29 30 31 33 34 35 35 36 36 36 38 39 41 42 44 45 45 46 47 49 50 52 53 54 55 55 55 55 55 56 56 55 55 55 55 54 54 53 53 53 52 52 51 51 50 50 50 51 51 52 52 52 53 53 54 54 54 54 52 51 48 47 46 45 44 43 43 42 41 40 39 40 42 43 45 47 48 48 49 49 50 52 53 55 57 58 59 60
26 27 28 29 30 31 31 32 32 33 34 35 36 36 37 37 37 37 39 41 42 44 46 47 48 48 48 49 49 50 50 50 50 50 50 50 49 49 49 49 48 48 48 48 47 47 48 48 49 50 50 51 52 52 52 52 50 48 47 46 45 44 44 43 42 42 41 41 40 39 39 41 43 45 46 47 48 48 49 50 51 52 54 56 58 59 60 62
23 24 25 26 27 28 29 29 30 31 32 32 32 32 31 31 31 31 33 35 36 38 39 40 41 41 42 43 43 44 44 44 44 44 44 45 45 45 45 45 45 44 44 44 44 45 46 47 48 49 50 51 51 51 49 47 45 44 43 43 43 43 42 42 41 41 41 41 41 41 41 42 44 45 46 47 48 49 50 51 52 54 56 57 59 61 62 63
21 22 24 24 25 26 27 28 29 29 30 30 30 29 28 27 27 29 30 31 32 33 34 35 36 36 37 38 39 39 39 39 40 40 40 41 41 41 41 41 41 40 41 42 43 44 46 47 48 50 51 51 50 47 45 43 42 42 41 41 41 40 40 40 40 40 40 42 43 44 44 44 45 46 47 49 50 51 52 52 54 55 57 59 61 63 64 65
20 22 23 24 25 26 27 28 28 29 29 29 29 28 26 26 27 27 28 29 29 29 31 32 33 33 35 35 36 36 36 36 36 37 37 37 37 37 37 37 38 39 40 41 42 44 46 48 50 51 51 49 46 43 41 41 41 41 40 40 39 39 39 39 39 40 41 43 45 47 48 47 46 48 49 51 53 53 54 55 56 58 59 61 63 64 65 66
21 22 23 25 25 26 27 27 27 28 29 29 29 27 26 26 27 27 27 28 28 28 29 30 30 30 30 31 32 32 32 33 33 33 33 33 34 34 34 36 37 38 40 41 43 46 48 50 52 51 48 45 42 40 40 40 40 39 39 38 38 38 38 39 39 40 42 44 47 49 51 50 49 50 52 53 54 55 57 57 59 60 62 63 65 66 67 68
22 23 24 25 26 27 27 27 27 27 28 29 29 28 27 27 28 28 27 27 27 27 27 26 25 25 25 26 27 27 28 28 29 30 30 31 32 33 35 36 38 39 41 43 45 48 50 51 49 46 43 40 39 40 40 40 39 38 37 37 37 37 38 39 40 41 43 45 47 49 53 54 52 54 54 55 56 57 59 60 61 63 64 66 67 68 69 70
24 25 26 27 27 28 28 28 28 28 29 30 30 29 29 29 29 29 28 26 25 24 23 21 20 20 21 21 22 22 24 25 27 28 29 31 33 35 36 38 40 42 44 46 48 49 49 48 45 41 39 39 39 40 40 39 38 37 36 36 37 37 39 40 41 42 44 46 47 48 52 56 55 56 57 57 58 59 61 62 64 65 66 67 68 70 71 72
26 27 28 29 29 29 29 30 29 29 30 31 31 31 31 31 30 28 27 24 21 20 19 18 16 16 18 19 20 22 25 27 29 30 32 34 35 37 39 41 43 45 47 48 48 48 47 44 40 38 38 39 40 40 39 38 37 36 36 36 38 38 39 41 42 44 45 46 48 48 52 56 56 57 58 59 61 62 63 64 65 66 67 69 70 72 73 74
27 28 29 30 30 30 31 31 31 31 32 33 33 32 31 30 29 27 25 21 17 15 14 16 17 19 22 23 25 28 29 31 32 34 35 37 38 40 42 44 46 48 48 47 47 46 44 40 37 38 39 40 40 39 38 37 36 36 36 37 38 39 40 42 44 45 46 47 48 49 52 55 56 58 60 61 62 64 64 66 67 68 69 71 72 73 74 75
26 28 29 30 31 31 32 32 32 32 32 33 32 31 30 28 25 24 22 18 14 12 15 21 24 26 27 28 30 31 31 33 34 36 37 39 40 42 44 46 47 46 46 46 46 43 38 36 37 39 40 40 40 39 37 36 36 36 37 38 39 40 41 42 44 46 47 49 50 50 52 56 57 58 61 63 64 65 66 67 68 70 71 73 74 75 76 77
27 29 29 30 31 32 33 32 32 31 30 30 29 28 26 23 20 18 16 14 14 18 24 28 29 29 29 31 33 33 34 35 36 38 39 40 42 43 44 45 45 45 46 45 41 37 35 37 39 40 40 40 39 38 37 37 37 37 38 39 40 42 42 43 45 47 48 50 52 52 54 58 59 60 62 64 65 66 67 68 70 71 73 74 75 76 77 78
27 29 30 30 32 32 31 30 29 27 26 25 25 24 22 19 18 16 15 17 21 26 30 31 31 32 33 34 35 36 37 38 39 40 41 41 42 42 43 43 45 46 44 40 36 36 37 39 40 40 40 39 38 37 37 37 37 38 39 40 41 43 44 45 46 48 49 52 55 54 56 60 61 62 63 65 66 67 68 70 72 73 74 76 77 78 79 80
26 28 30 31 31 30 28 26 24 22 21 20 20 19 18 17 19 20 21 23 26 30 32 33 34 34 35 36 37 38 38 39 40 40 40 40 41 41 43 44 45 43 38 36 36 38 39 40 40 40 39 38 37 37 37 37 38 39 40 41 42 44 46 47 48 50 51 54 57 57 58 62 63 63 65 66 68 68 70 72 73 75 76 78 79 80 81 81
26 29 29 29 29 28 25 22 20 18 17 16 16 17 18 21 23 25 26 28 30 32 34 34 35 36 36 37 37 37 37 37 37 37 38 39 40 42 44 44 41 37 36 37 38 40 41 41 40 39 38 37 37 37 37 38 39 40 41 43 44 45 47 50 51 52 54 55 58 58 60 64 65 64 66 67 69 70 72 74 75 77 79 80 81 81 81 80
28 29 28 27 27 25 22 19 17 16 15 14 16 18 19 22 25 26 27 30 32 33 33 33 33 34 34 34 34 34 35 35 35 37 38 40 42 44 43 40 36 36 37 39 40 41 41 41 40 38 37 37 37 38 38 39 40 42 43 44 46 46 48 51 53 55 56 56 58 59 61 65 67 66 67 69 71 72 73 75 77 79 80 80 80 79 79 79
30 30 27 25 24 23 20 17 16 16 16 15 15 17 18 19 21 22 23 25 28 30 30 31 31 31 31 32 32 33 34 35 36 38 40 42 44 42 38 36 36 37 38 40 41 42 41 40 39 38 38 38 38 39 40 41 42 43 44 45 47 48 49 52 54 56 58 58 58 59 60 64 69 69 69 70 72 73 75 77 79 79 79 79 78 77 77 78
31 29 26 23 22 21 19 17 17 18 17 14 13 15 17 19 21 21 21 23 25 26 28 29 30 31 32 32 33 34 35 36 37 40 42 43 41 37 35 35 37 38 40 41 43 42 41 40 39 38 39 39 39 40 41 42 43 44 46 47 48 50 51 52 54 56 59 61 61 60 59 62 70 72 69 71 73 75 77 79 79 78 77 76 76 77 78 80
32 29 26 22 20 20 19 18 20 21 18 15 14 16 19 22 25 24 24 25 26 27 29 30 31 33 33 34 35 35 37 38 40 42 42 40 36 34 35 37 38 39 41 43 43 42 40 39 39 39 39 40 40 42 42 43 45 46 47 48 49 51 53 54 55 55 58 61 63 63 61 61 68 73 71 71 75 77 78 78 77 76 75 76 77 79 81 82
32 29 25 22 19 19 19 19 21 23 20 18 20 23 25 26 28 29 29 30 31 32 33 34 35 35 36 37 37 38 39 40 41 40 38 35 34 35 36 38 39 41 43 44 43 42 40 39 39 39 40 41 42 42 44 44 45 47 49 50 50 52 53 54 56 57 58 60 63 66 66 62 65 73 74 73 76 78 78 77 77 76 76 78 80 81 82 83
31 29 25 21 18 18 18 19 22 24 23 22 23 27 29 29 29 31 33 34 36 37 37 38 39 39 39 40 40 40 40 40 39 37 35 34 35 36 37 39 40 42 44 44 43 41 41 40 40 40 41 41 42 43 45 46 46 47 49 50 51 52 54 55 57 59 59 62 65 68 69 66 66 72 75 74 76 77 77 77 77 78 79 80 82 82 82 83
31 28 25 21 18 17 17 19 22 25 25 24 26 28 30 31 31 32 34 37 38 39 39 39 40 40 40 40 40 41 41 40 38 36 35 36 37 37 38 39 41 43 45 44 42 41 41 41 41 41 42 42 43 44 45 46 47 48 50 51 52 53 54 56 58 60 61 63 67 69 71 70 69 74 76 74 75 76 77 78 79 80 81 82 83 82 81 80
30 27 25 22 19 16 17 19 21 25 26 26 28 30 31 33 34 34 35 36 36 36 36 36 37 38 39 40 41 41 41 39 37 36 37 38 39 39 39 40 42 44 45 43 41 42 41 41 42 42 43 43 44 45 46 47 48 49 50 51 53 54 55 57 59 61 62 64 67 70 73 73 73 76 77 74 74 75 76 78 80 82 83 82 81 79 78 76
30 26 24 22 20 17 17 18 21 24 27 28 30 32 34 35 36 37 37 36 34 33 34 35 36 37 39 40 41 41 41 39 38 38 39 39 39 40 40 42 44 45 44 42 42 42 42 42 42 43 43 44 45 46 47 48 50 50 52 53 54 56 57 59 61 63 64 65 68 70 74 76 77 78 78 76 74 75 76 78 80 82 82 81 79 76 75 74
29 26 23 22 21 20 18 18 20 23 27 29 31 33 35 37 38 39 40 38 36 35 35 37 38 39 40 42 42 42 41 39 38 39 39 39 39 41 42 43 46 46 44 42 42 42 42 42 43 44 44 45 46 47 48 50 51 52 54 55 56 58 59 60 62 64 65 66 68 71 74 76 79 81 81 78 77 76 76 77 79 80 80 78 76 75 75 74
29 25 23 21 21 21 21 19 20 22 26 30 32 34 35 37 39 40 41 40 39 39 39 39 41 42 42 42 42 42 40 39 39 39 39 39 40 42 44 45 47 47 44 43 43 42 43 43 44 44 45 47 48 49 50 51 52 54 56 58 59 60 61 61 63 65 66 67 69 71 73 75 79 83 83 80 78 78 77 76 77 78 77 76 75 75 75 75
28 25 23 21 21 21 22 22 21 21 24 28 33 35 35 36 36 38 39 39 40 41 42 43 44 43 42 41 41 40 39 38 39 39 39 40 42 44 46 48 49 47 43 43 43 42 43 44 45 46 47 49 50 50 52 53 54 56 58 60 62 63 64 63 64 65 66 67 68 70 73 75 80 85 84 79 78 78 77 76 76 76 76 75 75 75 75 74
28 24 22 21 21 22 23 23 22 21 22 26 31 34 35 35 35 36 37 38 40 42 43 42 41 39 39 39 39 38 38 38 38 39 40 42 44 45 48 50 49 45 43 43 43 42 43 45 47 48 49 50 51 52 54 55 56 58 60 62 64 67 68 67 67 67 67 66 67 70 73 76 82 87 85 79 77 77 75 75 75 76 76 75 74 74 74 72
26 23 21 21 21 21 22 22 21 20 21 23 27 30 32 34 35 35 37 39 40 40 39 36 35 35 37 37 38 38 37 38 39 40 41 43 45 47 50 50 47 45 45 44 43 43 43 45 48 49 50 52 53 54 56 57 59 60 62 64 66 68 70 71 70 70 70 68 66 68 72 76 83 90 87 80 75 75 74 74 75 75 75 73 73 72 71 69
25 22 21 20 20 20 20 20 19 19 19 21 23 26 29 31 32 34 36 37 37 36 34 33 34 35 37 37 38 38 38 39 40 42 44 45 47 50 50 47 45 46 46 45 44 44 43 45 48 50 52 54 55 56 58 60 61 62 63 66 68 70 71 73 72 71 72 71 67 67 70 74 83 91 88 79 73 72 74 73 73 73 71 70 69 68 66 63
23 21 20 20 19 19 18 18 18 18 18 19 21 23 26 28 30 32 34 34 35 34 34 34 36 37 37 38 38 38 39 40 42 43 45 48 50 50 48 46 46 47 47 46 45 45 45 45 48 52 53 55 56 57 59 62 63 64 65 68 70 71 72 74 74 73 74 72 66 66 67 71 81 90 87 77 71 71 71 70 70 70 68 67 65 64 62 60
22 20 19 19 18 18 18 18 17 17 17 18 19 21 24 27 30 32 33 34 35 35 35 36 37 38 38 38 38 39 41 42 44 46 48 50 50 48 46 46 47 47 47 47 46 47 47 46 49 53 55 57 58 59 61 64 65 66 68 70 72 73 73 74 75 74 74 72 66 64 63 66 78 88 85 75 71 70 68 67 68 67 65 63 61 61 61 62
20 19 18 18 18 18 17 17 16 16 16 17 19 20 23 25 28 30 31 33 34 35 35 36 37 38 38 39 40 41 43 45 47 48 48 48 47 46 46 47 47 47 47 48 47 48 49 48 49 53 57 59 60 61 63 65 66 67 69 71 73 75 75 75 76 75 75 72 68 64 58 59 74 87 81 73 71 69 65 62 63 63 62 61 61 62 64 65
19 18 17 17 17 17 16 16 15 15 15 17 18 20 22 24 25 26 27 29 31 32 34 35 36 38 39 40 41 43 46 47 47 46 45 45 45 46 47 47 47 47 47 48 49 49 50 50 51 54 58 60 61 63 64 66 67 68 70 72 75 76 76 75 74 73 74 71 71 69 57 55 71 83 76 72 69 66 62 59 59 60 61 63 64 66 68 68
18 17 16 16 16 15 14 14 14 14 14 16 18 20 22 24 25 26 27 29 30 32 33 35 37 38 40 42 43 44 45 44 44 43 43 44 45 45 46 46 46 47 47 49 50 51 51 52 53 55 59 61 62 64 66 66 68 69 71 74 76 77 77 76 71 69 70 69 71 72 59 55 69 76 70 68 65 62 60 59 60 62 65 67 67 69 71 72
16 15 15 14 14 13 13 12 12 12 13 14 16 19 21 23 25 27 28 30 31 33 35 36 37 39 40 41 41 41 40 41 43 43 44 45 45 44 45 45 46 47 48 49 51 53 53 53 54 56 59 61 63 65 66 67 68 70 72 74 76 77 76 75 70 67 67 67 70 70 60 55 64 67 63 62 61 61 63 63 64 66 69 70 70 72 74 76
14 13 13 13 12 12 12 12 12 12 13 14 15 17 19 21 23 25 27 29 30 32 33 35 35 36 37 38 38 39 39 41 43 45 44 44 44 44 45 46 47 48 49 50 52 54 54 55 56 56 58 61 64 67 68 69 69 70 72 75 75 76 74 72 70 68 66 65 68 66 56 51 56 59 60 61 61 63 66 67 69 70 71 73 73 75 78 80
12 12 12 12 12 12 12 12 13 13 14 15 15 16 17 19 21 23 25 26 28 29 31 32 33 34 35 37 38 40 40 41 42 44 44 43 44 45 46 47 48 49 51 51 53 54 55 57 58 57 57 59 62 66 68 69 69 70 72 73 73 72 71 70 69 67 64 61 61 61 52 47 53 59 61 63 64 66 68 70 73 75 76 76 76 78 81 84
11 11 12 12 12 13 13 13 14 15 16 17 17 18 19 21 22 24 26 27 28 30 31 32 34 35 36 38 39 40 41 40 40 42 43 43 44 46 47 48 50 51 52 53 54 55 56 58 60 60 59 59 60 62 63 63 64 66 67 69 70 69 69 68 67 64 60 54 53 57 54 49 55 62 63 65 67 68 70 73 77 80 81 81 82 84 86 88
11 12 12 13 14 14 15 15 16 17 18 19 20 21 22 24 25 26 28 29 30 32 33 34 35 36 37 38 39 39 40 40 40 41 43 44 45 47 48 50 51 52 54 54 55 55 56 58 61 61 61 62 62 62 62 60 60 61 64 67 67 66 64 63 61 58 56 52 51 57 60 55 57 62 63 65 68 69 72 75 78 82 83 84 86 88 90 92
12 13 14 14 15 16 17 18 18 19 20 21 22 23 25 26 28 28 29 31 32 33 34 35 35 36 37 37 38 39 39 40 41 42 43 45 47 48 50 51 52 54 55 55 55 55 55 56 59 60 61 63 63 62 61 60 60 61 63 62 60 58 57 57 57 56 57 56 54 58 63 62 62 64 65 67 70 72 75 78 81 84 85 86 88 90 92 95
13 14 15 16 17 18 19 20 21 22 23 24 25 26 27 28 29 30 31 32 32 33 34 34 34 35 36 36 37 38 39 41 43 44 45 47 48 49 51 52 53 54 55 55 55 55 54 54 56 56 57 60 62 61 61 60 59 59 57 54 51 52 53 55 57 59 60 60 59 60 64 67 68 68 69 72 75 76 79 82 85 87 88 89 91 93 96 98
15 16 17 18 19 20 21 22 23 24 25 26 26 27 28 29 30 31 31 32 32 32 32 33 34 34 35 36 37 38 40 42 44 45 46 48 49 50 51 53 54 54 54 55 55 54 53 52 53 53 53 58 61 59 57 55 52 52 53 51 51 53 56 58 60 62 63 63 64 65 67 70 73 73 74 77 80 81 83 86 89 91 93 94 95 98 100 102
16 17 19 20 21 22 23 24 25 26 26 27 27 28 28 29 30 30 30 30 31 31 32 32 33 34 35 37 38 39 40 42 43 45 46 48 49 50 50 52 53 53 54 53 53 53 51 50 51 49 48 53 55 51 50 49 48 50 52 53 54 57 60 62 64 66 66 66 68 70 72 74 76 78 79 81 83 84 87 91 94 96 97 99 101 103 104 106
18 19 20 21 23 23 24 25 25 26 27 27 27 27 28 28 28 29 29 29 30 31 32 33 33 35 35 37 38 39 40 41 43 44 45 46 47 49 50 51 51 51 51 51 50 49 47 44 43 40 39 43 45 45 46 49 50 52 53 55 57 60 62 65 68 70 71 70 72 74 76 77 78 79 81 83 86 89 92 96 101 102 102 104 106 108 109 111
19 21 21 22 23 24 24 25 25 26 26 26 26 26 26 27 27 28 29 29 30 30 31 32 33 35 35 36 37 39 39 40 41 43 44 45 46 47 47 47 46 45 43 42 40 39 37 36 35 35 36 40 43 45 47 50 52 54 55 57 60 62 64 67 71 74 74 74 75 76 78 80 81 83 84 86 88 92 96 100 105 108 108 108 110 112 114 116
Wind_Direction
230 231 232 234 235 236 238 239 239 240 241 242 243 244 245 246 246 247 248 249 250 251 252 254 255 257 258 259 261 262 263 264 265 267 268 269 271 272 273 273 274 275 276 277 279 280 281 282 283 284 285 286 287 287 288 289 291 292 293 294 295 295 296 297 298 300 301 302 302 303 302 302 302 300 300 300 300 301 303 305 307 308 309 309 308 308 307 307
233 234 235 236 237 238 239 240 241 242 243 244 245 245 245 246 247 248 248 250 251 251 252 254 255 257 259 260 262 263 265 266 267 268 269 270 271 272 274 275 275 276 277 279 280 281 282 283 284 285 286 286 287 288 290 291 292 293 294 295 296 297 298 299 300 302 303 303 303 302 301 301 300 299 299 301 303 305 307 309 309 309 309 308 308 307 307 307
235 237 238 240 240 241 241 242 243 243 244 245 246 247 247 247 247 248 249 250 251 252 253 254 255 257 259 260 262 263 265 266 268 269 270 271 272 273 274 275 276 277 278 280 281 282 283 284 285 286 287 288 289 290 291 292 293 294 295 296 298 299 300 301 302 303 303 302 302 301 300 299 299 300 302 305 307 309 310 310 310 309 309 308 307 307 307 308
238 239 241 243 244 245 245 245 245 245 246 247 248 248 249 249 249 250 250 251 252 253 253 254 255 256 258 260 261 263 264 266 267 268 270 271 272 273 274 275 276 278 279 280 281 282 283 285 286 287 288 289 290 291 292 293 294 295 297 298 299 300 301 302 303 303 302 301 300 299 299 300 301 303 306 308 309 310 310 310 309 309 308 308 307 307 308 308
241 242 243 245 246 247 248 248 248 247 247 248 250 250 251 251 251 252 252 253 254 255 255 255 255 256 257 258 260 262 263 265 266 267 269 270 272 273 274 275 276 278 279 280 281 283 284 285 286 287 288 289 290 291 293 294 296 297 298 299 300 301 301 302 302 301 300 299 298 298 300 302 304 306 308 310 310 310 309 309 309 308 308 307 308 308 308 308
242 244 245 246 247 248 249 250 250 251 251 251 251 252 252 253 253 254 255 255 255 256 256 256 256 257 257 259 260 261 262 264 265 267 268 269 271 272 273 275 276 278 279 280 282 283 284 285 286 287 288 290 291 293 295 296 297 298 299 300 301 301 301 301 301 299 298 298 298 300 302 305 307 309 310 310 309 309 308 308 308 308 308 308 308 308 308 308
243 244 245 246 247 248 250 251 252 253 252 252 252 252 253 254 255 255 256 256 256 256 257 257 257 257 258 258 259 260 262 263 264 266 267 268 270 271 273 274 276 277 279 280 282 283 284 285 286 288 290 292 294 296 297 297 298 298 300 301 301 301 301 300 299 298 298 298 300 302 305 308 309 310 309 308 307 308 308 308 308 308 308 309 309 309 308 307
245 246 247 248 249 251 252 253 254 254 254 254 254 254 254 254 254 255 255 255 255 256 256 257 257 257 257 257 258 259 260 261 263 264 265 267 268 270 272 274 276 278 279 281 282 283 285 286 288 290 292 294 296 297 298 298 299 300 301 301 301 300 299 298 298 298 299 300 302 304 307 308 308 308 307 306 306 307 308 308 308 308 308 309 309 308 307 307
248 249 250 251 253 254 255 256 257 258 258 258 258 257 257 257 256 255 255 255 254 254 255 255 255 255 255 255 256 257 258 259 260 262 263 265 267 269 272 274 277 279 281 282 283 284 286 288 289 291 294 296 297 298 298 299 300 301 301 300 298 298 297 298 298 299 301 303 305 306 307 308 307 306 305 306 307 308 308 307 307 308 308 308 308 308 307 307
255 255 256 257 258 259 259 260 262 263 263 264 263 263 262 262 260 258 257 256 254 253 252 252 252 252 252 253 253 254 254 256 258 259 262 265 268 271 274 276 279 281 282 283 285 286 287 289 291 294 296 298 298 299 299 300 300 300 299 297 296 296 297 298 300 302 304 306 307 307 307 307 306 306 307 308 308 308 307 307 307 307 307 308 308 307 307 307
261 261 261 261 261 262 262 263 264 266 268 269 268 267 267 266 263 261 260 258 256 254 252 250 249 248 248 249 250 252 253 254 257 260 264 267 271 274 276 278 280 281 282 284 285 286 288 290 293 296 298 298 298 299 299 299 299 297 296 294 294 295 297 299 301 303 306 307 307 307 306 306 307 308 309 309 308 307 306 306 306 307 307 307 308 307 307 308
265 265 265 265 265 265 265 266 267 268 270 271 271 270 269 268 267 264 263 262 259 255 251 248 246 246 247 250 251 252 254 257 261 265 269 272 274 276 277 278 279 280 281 283 284 286 290 293 296 298 298 297 298 298 298 297 296 295 293 293 294 296 298 300 303 305 306 307 307 307 306 307 309 310 309 308 307 306 306 306 306 307 308 308 308 308 308 308
270 270 270 270 270 270 271 271 271 271 272 272 272 271 271 270 269 267 265 264 262 257 252 246 243 244 246 250 253 256 260 264 266 269 271 272 272 273 274 275 277 279 280 282 285 289 293 296 297 297 296 296 297 296 296 295 294 292 292 293 295 297 299 301 303 305 306 306 305 307 307 308 310 309 308 307 307 306 306 307 308 308 309 309 309 309 309 309
271 272 273 273 273 274 275 275 274 274 273 273 273 273 272 271 270 269 267 263 258 252 247 240 239 244 248 252 257 260 261 261 262 263 264 266 268 270 272 275 277 279 281 284 288 291 294 296 297 296 295 295 295 295 295 293 292 291 292 294 296 298 299 301 303 304 304 304 306 308 307 306 308 308 307 307 307 307 308 308 309 309 310 310 310 310 309 309
273 273 274 275 275 276 277 277 276 275 275 274 273 272 271 269 269 267 264 259 251 242 236 233 240 249 248 247 247 246 247 250 254 257 260 264 268 271 274 277 279 281 284 288 291 293 295 296 295 294 294 295 295 294 293 291 290 291 292 294 296 298 300 302 303 303 304 305 307 308 305 304 306 306 306 307 307 308 309 310 310 310 310 310 310 310 310 310
276 276 276 277 278 278 278 278 278 277 277 275 273 271 269 267 265 261 256 248 238 233 233 237 240 237 233 233 235 238 244 249 254 259 263 266 270 274 277 279 282 285 288 291 294 295 296 294 293 293 294 294 293 292 291 289 289 290 292 294 296 298 300 301 302 303 305 306 306 306 305 304 305 306 306 307 308 309 310 311 311 311 311 311 311 310 310 310
281 280 279 279 280 280 279 280 279 278 276 273 270 267 264 261 257 253 247 238 233 229 228 230 230 229 230 233 238 243 249 254 258 263 266 270 274 277 280 283 285 288 291 294 296 295 294 292 292 293 293 292 291 289 288 287 288 290 292 295 297 299 300 301 302 303 305 305 304 306 305 304 305 307 308 309 309 311 312 312 312 312 311 311 311 311 311 311
287 285 283 283 282 281 281 281 279 276 272 268 265 261 258 251 242 237 229 224 232 233 228 226 227 231 235 238 243 249 254 258 262 266 270 274 277 280 283 285 287 290 294 296 295 293 291 292 293 292 292 290 288 286 285 286 287 290 293 296 298 299 300 301 302 303 304 305 305 307 306 306 307 308 309 310 311 312 312 312 312 312 311 311 311 311 311 311
290 288 286 285 284 283 282 281 278 273 267 262 257 252 249 240 224 216 214 217 224 227 228 230 233 236 241 245 249 253 256 261 265 269 273 276 279 282 284 287 291 294 295 294 292 291 292 293 293 291 290 287 286 285 286 287 289 292 294 296 298 299 300 300 302 303 305 306 307 308 308 307 308 310 310 311 311 312 312 312 312 311 311 312 312 312 312 312
293 291 290 288 286 284 283 280 276 269 262 255 248 242 235 224 214 212 216 220 223 227 231 235 238 241 245 250 254 256 260 264 268 272 274 277 281 283 287 291 294 295 293 291 292 293 294 294 293 290 288 286 286 286 287 289 292 294 295 297 297 299 300 301 303 305 307 307 308 309 309 309 310 311 311 311 311 312 312 311 312 312 312 312 312 313 313 312
298 295 293 290 287 285 282 279 274 265 256 247 238 233 223 215 213 213 217 221 226 230 235 240 244 247 251 254 257 260 263 267 269 272 276 279 283 288 292 294 294 292 290 292 294 295 295 294 291 288 286 285 285 287 289 291 293 294 295 296 298 299 302 304 306 306 307 308 308 310 311 310 310 311 311 311 311 312 311 311 312 312 312 313 313 313 313 313
302 298 295 291 287 285 282 277 270 259 251 242 231 226 222 218 219 219 221 224 228 232 237 244 249 252 255 257 259 261 264 267 270 275 279 283 287 292 294 293 290 289 290 293 295 296 295 292 289 286 284 284 285 287 288 290 291 293 295 297 299 301 303 305 306 307 308 309 309 310 312 311 310 311 311 311 311 311 311 311 312 312 313 314 314 314 313 313
304 301 297 291 286 283 280 272 263 252 245 237 227 221 222 228 235 237 236 235 236 238 242 246 250 252 254 256 259 261 264 269 274 279 283 287 290 293 291 289 288 289 291 294 296 296 293 290 286 284 283 284 285 286 288 290 291 294 296 298 300 302 304 305 306 308 309 309 309 310 311 311 310 311 311 311 311 311 311 311 312 313 314 314 314 314 314 313
306 302 297 291 284 280 276 264 253 248 242 234 230 226 220 222 234 242 246 248 247 247 247 249 250 251 253 255 259 263 267 273 278 283 286 289 291 290 288 287 288 290 293 296 298 296 292 288 285 283 283 284 285 287 289 291 293 295 297 300 301 302 304 305 306 308 308 309 309 309 311 312 310 310 311 311 311 311 311 311 313 314 315 315 315 314 314 313
306 302 296 290 282 276 272 259 246 246 243 231 229 234 226 219 224 231 237 242 245 246 247 247 249 251 253 257 261 266 271 276 280 284 287 288 288 288 288 288 289 292 295 298 298 294 290 286 284 284 284 285 287 289 290 292 295 297 298 300 301 303 304 306 306 307 308 308 308 309 311 312 310 309 310 310 310 310 311 313 314 315 315 315 314 314 313 313
305 300 294 290 282 274 270 257 246 245 243 230 220 223 225 223 224 228 232 237 240 243 245 247 250 252 255 259 264 269 273 277 281 285 286 284 285 287 288 289 290 293 297 299 297 292 288 286 285 284 285 287 289 290 292 293 295 297 299 300 302 303 304 306 307 307 308 308 308 309 310 311 310 308 309 310 310 311 313 314 314 315 315 315 314 313 313 313
303 298 293 289 282 274 268 258 249 246 242 234 224 221 224 226 227 229 233 238 241 244 247 250 253 256 259 263 268 272 275 279 282 285 284 282 285 288 289 290 292 296 299 299 295 291 288 286 285 286 287 289 290 291 293 294 296 298 299 301 302 303 305 306 307 307 308 308 308 309 309 310 310 308 309 311 311 312 313 314 314 314 315 314 313 313 313 314
301 296 292 288 282 275 268 258 250 246 242 236 231 227 226 228 231 232 235 238 242 245 249 253 256 260 263 267 270 273 276 279 282 283 282 282 284 289 291 291 294 298 300 298 293 290 288 287 286 287 288 290 291 293 294 295 297 298 299 301 302 304 305 306 306 306 307 308 308 308 309 310 310 309 309 312 312 313 314 314 314 314 314 313 313 313 314 315
298 295 292 289 284 276 269 262 251 245 242 236 232 231 228 229 232 236 238 241 244 249 254 258 261 265 267 270 272 274 278 280 281 282 283 282 283 289 292 292 296 300 300 296 292 289 288 287 287 288 289 290 292 294 295 296 297 298 300 301 302 304 304 305 306 306 306 307 307 309 309 310 311 310 310 311 312 313 313 314 314 314 314 313 313 314 316 317
296 293 291 289 287 280 271 264 254 247 243 237 232 231 231 232 235 239 243 247 251 255 260 264 267 269 271 272 274 276 280 280 280 282 283 282 284 289 291 293 297 301 300 295 291 289 287 287 287 288 289 291 292 294 295 296 297 299 300 301 302 303 303 304 305 305 306 307 308 309 310 311 311 310 309 311 312 313 313 314 315 314 313 313 314 316 317 317
295 292 289 289 287 283 276 267 259 251 244 240 236 233 233 235 237 242 246 252 256 259 264 267 269 272 274 274 275 277 279 279 280 282 282 282 285 289 291 293 298 301 299 294 291 289 287 287 287 288 290 291 292 293 295 296 298 300 300 301 302 302 302 303 304 305 306 307 308 310 310 311 311 310 310 311 313 313 314 315 315 314 313 313 315 316 316 316
294 290 289 288 285 283 281 274 265 256 247 242 240 238 237 237 239 243 248 253 257 260 264 267 269 273 275 274 275 277 278 279 279 281 282 284 286 289 291 294 298 301 297 293 291 289 288 288 288 289 290 291 292 293 295 297 298 300 300 301 301 301 301 302 303 304 306 307 309 310 311 311 311 309 310 312 314 314 315 315 314 313 312 314 315 316 316 315
291 289 289 288 285 283 282 279 272 261 251 244 241 240 240 240 241 243 247 251 255 260 264 267 270 272 272 272 274 277 278 278 278 280 282 284 286 288 291 295 299 299 295 292 291 289 288 289 289 290 291 291 293 295 296 297 299 300 300 301 301 301 300 301 302 303 306 308 310 311 312 312 311 309 310 312 314 314 315 315 314 312 312 314 315 315 315 315
289 289 289 287 286 284 282 281 276 266 255 246 242 242 242 243 243 245 247 250 255 260 264 267 268 268 268 271 275 276 277 277 279 281 282 284 286 289 292 297 299 296 293 292 291 289 288 289 290 292 293 294 295 296 297 298 299 300 300 301 302 301 302 303 304 305 307 309 311 312 313 314 312 310 310 312 314 314 314 314 313 312 313 314 314 314 314 314
288 287 288 287 286 284 281 279 276 269 257 248 244 243 243 244 245 246 248 251 255 259 263 264 264 266 269 272 275 276 276 278 280 281 282 284 287 291 295 298 297 294 294 293 292 290 290 290 292 293 294 296 297 298 299 299 299 300 301 301 302 302 303 305 306 308 309 310 313 314 315 316 313 310 310 312 313 313 314 314 313 312 312 313 313 313 313 313
286 287 287 287 286 283 281 278 276 271 260 249 244 243 243 244 246 246 247 250 253 257 261 263 264 267 271 273 275 276 277 278 280 282 284 286 289 293 296 296 295 295 295 294 293 292 291 292 293 294 296 296 297 299 299 300 300 301 301 302 302 303 305 306 307 309 310 311 315 316 317 317 313 310 309 310 313 314 314 315 314 312 312 312 312 312 312 314
286 287 287 287 286 284 282 279 277 273 265 254 247 243 243 244 245 246 248 250 253 257 261 263 265 269 272 275 277 278 279 280 282 284 286 289 292 295 295 295 294 295 294 294 294 293 294 294 295 296 297 297 298 300 300 301 301 302 303 304 304 305 306 307 309 310 310 312 315 317 318 318 314 309 307 311 315 316 316 316 314 313 313 313 313 313 314 316
285 286 287 287 286 286 284 282 279 275 270 261 253 248 245 245 247 249 251 253 255 258 260 263 267 270 274 277 278 279 281 282 284 286 288 291 293 294 294 294 294 295 294 294 294 295 296 297 297 298 298 299 300 301 302 302 303 304 305 305 306 306 307 308 310 311 312 312 315 317 319 320 314 307 307 314 318 317 317 317 315 314 315 314 314 315 316 317
284 286 288 288 288 288 286 284 282 279 275 268 261 257 253 251 252 253 254 255 257 260 264 267 270 273 275 277 279 280 282 284 286 289 290 292 292 293 294 294 294 294 294 295 295 296 297 298 299 299 299 300 301 302 302 303 304 306 307 307 307 307 309 310 311 313 313 314 316 317 320 324 314 306 309 317 318 316 317 317 315 316 316 315 315 316 316 316
284 287 289 289 289 289 288 288 286 284 281 275 270 267 265 264 264 263 263 263 265 267 270 273 274 276 277 278 280 282 284 287 289 290 290 291 292 293 294 294 294 294 294 295 296 297 299 300 301 300 300 301 302 303 303 304 306 307 307 308 308 308 309 310 311 314 314 317 318 316 323 328 312 306 313 318 316 317 319 318 318 318 316 315 316 316 316 316
285 288 289 289 289 290 290 291 291 290 287 282 276 273 273 273 273 274 274 274 275 275 276 278 278 278 279 281 283 285 287 288 289 290 291 291 292 293 293 293 294 294 295 296 297 298 300 301 301 301 301 302 303 303 304 306 307 308 309 309 308 309 310 310 312 315 316 319 318 315 323 325 310 309 316 316 316 320 320 319 319 318 316 316 317 316 316 316
286 288 288 288 288 290 291 293 295 294 291 287 282 279 277 277 277 278 279 280 280 280 280 280 281 281 282 284 285 286 287 289 290 291 292 292 293 293 293 294 295 295 297 298 298 300 301 302 302 302 302 304 304 305 306 308 309 310 310 309 309 309 310 311 314 317 319 320 315 314 322 321 312 313 316 316 320 322 320 320 319 317 316 316 317 317 316 315
285 287 287 286 288 290 294 296 297 296 294 292 289 285 283 281 281 281 281 282 282 282 282 282 282 283 284 285 286 288 289 290 291 292 292 293 293 294 294 295 296 297 298 299 300 301 302 303 303 303 304 306 306 307 308 309 310 311 310 309 309 309 310 314 317 318 319 318 314 315 322 323 317 315 315 318 322 321 319 320 318 316 316 316 317 317 316 316
283 285 285 286 289 293 296 297 296 295 294 293 292 290 289 287 285 284 284 283 283 284 284 284 285 286 286 287 289 290 291 291 291 291 292 293 294 295 296 297 298 299 300 301 301 302 304 304 304 306 307 307 307 308 308 309 310 310 309 308 308 309 313 316 318 318 317 317 317 318 324 327 320 315 317 321 321 320 320 319 317 316 316 317 318 318 317 317
280 281 283 287 291 294 295 295 295 294 294 293 293 293 292 290 289 288 287 287 287 287 287 288 288 289 289 290 291 291 291 291 290 290 292 294 296 297 298 299 300 301 302 302 303 305 306 307 307 309 310 309 307 306 305 307 308 308 307 307 309 312 316 317 317 317 317 321 323 320 322 326 321 316 320 321 320 320 319 318 317 316 317 318 319 318 317 316
277 281 285 290 293 294 295 295 294 294 294 294 295 294 292 291 290 290 290 289 290 290 290 290 291 291 291 291 291 290 291 291 291 292 294 296 297 298 300 301 301 302 303 304 306 307 309 309 309 310 310 310 308 306 306 307 308 309 308 309 312 316 318 317 317 318 319 324 326 320 319 322 319 317 319 319 318 318 317 316 316 316 317 318 318 317 316 315
281 285 289 293 295 296 296 296 296 296 295 295 295 294 293 292 292 292 292 292 292 292 291 291 291 291 291 291 291 291 292 293 294 295 297 298 299 300 301 302 303 304 305 307 307 308 309 309 309 309 310 309 308 308 309 311 312 312 311 313 317 320 320 319 319 320 320 322 323 320 319 319 318 317 318 317 317 317 317 317 316 316 316 317 316 315 315 314
286 290 293 296 297 297 297 297 297 296 295 295 295 295 294 294 294 294 294 293 293 292 292 292 292 291 291 292 293 293 295 296 297 299 300 301 302 303 304 305 306 306 307 307 308 308 309 310 310 310 311 309 308 310 312 314 315 314 314 320 325 324 321 320 319 319 320 321 321 321 319 318 318 319 320 319 319 319 319 317 316 315 315 316 315 315 314 314
292 294 297 298 298 298 297 297 297 297 297 297 296 296 296 295 295 295 294 294 294 293 293 293 293 293 294 295 296 297 298 299 301 302 303 305 305 306 307 307 306 307 307 308 309 309 312 312 311 312 313 310 309 312 315 317 318 318 321 327 328 323 321 320 319 319 320 321 321 321 320 319 320 321 321 320 320 320 319 317 315 315 315 316 316 315 315 314
296 298 299 299 298 298 298 298 298 297 297 298 297 297 297 296 295 295 295 295 295 295 295 295 296 297 298 299 300 301 302 303 304 305 306 307 307 306 307 306 307 308 309 310 311 312 313 314 313 314 315 311 312 317 320 320 322 323 326 327 325 322 321 321 320 319 320 321 322 321 321 321 321 321 321 320 319 320 319 317 316 315 316 316 316 316 315 314
298 299 299 299 298 298 298 298 298 298 298 297 298 298 297 296 296 296 296 296 297 297 298 299 300 301 302 303 304 305 306 307 307 307 307 307 307 308 308 308 309 310 310 311 312 313 314 316 317 320 321 318 319 324 324 322 323 325 326 325 323 322 321 321 320 319 320 322 322 321 321 321 320 320 320 320 320 320 320 318 316 316 316 317 316 315 314 313
299 299 299 298 298 298 297 297 298 297 297 297 298 298 297 297 297 298 298 299 300 300 301 302 303 304 305 306 307 307 308 308 308 308 308 310 311 311 311 312 313 314 315 316 317 318 320 324 326 329 330 325 323 325 323 321 323 325 326 325 322 321 322 322 321 319 320 322 321 320 320 320 319 320 320 321 321 321 321 319 316 315 316 316 316 315 314 313